Weather History for Parsons, KS

Change the Weather History Date:

Wednesday, November 21, 2012

  Actual Average Record
Temperature  
Mean Temperature 53 °F -  
Max Temperature 73 °F 54 °F 76 °F (1966)
Min Temperature 33 °F 33 °F 13 °F (1964)
Degree Days  
Heating Degree Days 12    
Growing Degree Days 3 (Base 50)    
Moisture  
Dew Point 35 °F    
Average Humidity 70    
Maximum Humidity 93    
Minimum Humidity 25    
Precipitation  
Precipitation 0.00 in - - ()
Sea Level Pressure  
Sea Level Pressure 30.20 in    
Wind  
Wind Speed 2 mph (South)    
Max Wind Speed 14 mph    
Max Gust Speed 18 mph    
Visibility 6 miles    
Events Fog    
Averages and records for this station are not official NWS values.
T = Trace of Precipitation, MM = Missing Value Source: NWS Daily Summary

Daily Weather History Graph

Daily Weather History Graph

Search for Another Location

Airport:

Trip Planner

Search our weather history database for the weather conditions in past years. The results will help you decide how hot, cold, wet, or windy it might be!

Date:

Astronomy

Nov. 21, 2012 Rise Set
Actual Time 7:08 AM CST 5:07 PM CST
Civil Twilight 6:39 AM CST 5:35 PM CST
Nautical Twilight 6:08 AM CST 6:07 PM CST
Astronomical Twilight 5:36 AM CST 6:38 PM CST
Moon 1:17 PM CST (11/21) 12:36 AM CST (11/21)
Length of Visible Light 10h 56m
Length of Day
9h 59m
First Quarter, 62% of the Moon is Illuminated
Nov 21
First Quarter
Nov 28
Full
Dec 6
Last Quarter
Dec 13
New
Dec 19
First Quarter

Hourly Weather History & Observations

Time (CST) Temp. Dew Point Humidity Pressure Visibility Wind Dir Wind Speed Gust Speed Precip Events Conditions
12:52 AM 36.0 °F 33.1 °F 89% 30.24 in 10.0 mi Calm Calm - N/A   Clear
1:52 AM 36.0 °F 33.1 °F 89% 30.24 in 10.0 mi Calm Calm - N/A   Clear
2:52 AM 35.1 °F 32.0 °F 89% 30.24 in 8.0 mi Calm Calm - N/A   Clear
3:52 AM 34.0 °F 30.9 °F 89% 30.24 in 8.0 mi Calm Calm - N/A   Clear
4:52 AM 36.0 °F 33.1 °F 89% 30.24 in 2.5 mi Calm Calm - N/A   Clear
5:07 AM 33.8 °F 32.0 °F 93% 30.24 in 1.2 mi Calm Calm - N/A   Clear
5:17 AM 35.6 °F 32.0 °F 87% 30.24 in 2.0 mi Calm Calm - N/A   Clear
5:26 AM 35.6 °F 32.0 °F 87% 30.24 in 4.0 mi Calm Calm - N/A   Clear
5:52 AM 33.1 °F 30.9 °F 92% 30.25 in 4.0 mi Calm Calm - N/A   Clear
6:04 AM 33.8 °F 30.2 °F 87% 30.24 in 2.0 mi Calm Calm - N/A   Clear
6:13 AM 33.8 °F 30.2 °F 87% 30.24 in 1.0 mi Calm Calm - N/A   Mist
6:21 AM 33.8 °F 30.2 °F 87% 30.24 in 0.8 mi Calm Calm - N/A   Mist
6:23 AM 33.8 °F 30.2 °F 87% 30.24 in 1.2 mi Calm Calm - N/A   Partly Cloudy
6:27 AM 33.8 °F 30.2 °F 87% 30.24 in 2.0 mi Calm Calm - N/A   Partly Cloudy
6:52 AM 34.0 °F 32.0 °F 92% 30.25 in 2.5 mi Calm Calm - N/A   Clear
7:13 AM 33.8 °F 30.2 °F 87% 30.24 in 4.0 mi Calm Calm - N/A   Clear
7:20 AM 33.8 °F 30.2 °F 87% 30.25 in 5.0 mi Calm Calm - N/A   Partly Cloudy
7:47 AM 33.8 °F 32.0 °F 93% 30.25 in 0.8 mi Calm Calm - N/A   Mist
7:52 AM 35.1 °F 33.1 °F 92% 30.27 in 0.2 mi Calm Calm - N/A Fog Fog
8:03 AM 37.4 °F 33.8 °F 87% 30.25 in 1.0 mi Calm Calm - N/A   Clear
8:07 AM 39.2 °F 35.6 °F 87% 30.25 in 1.5 mi Calm Calm - N/A   Clear
8:15 AM 41.0 °F 39.2 °F 93% 30.25 in 2.5 mi Calm Calm - N/A   Clear
8:33 AM 46.4 °F 42.8 °F 87% 30.26 in 5.0 mi Calm Calm - N/A   Clear
8:52 AM 50.0 °F 45.0 °F 83% 30.27 in 8.0 mi South 4.6 mph - N/A   Clear
9:52 AM 57.0 °F 45.0 °F 64% 30.27 in 10.0 mi SSW 6.9 mph - N/A   Clear
10:52 AM 63.0 °F 43.0 °F 48% 30.25 in 10.0 mi South 11.5 mph - N/A   Clear
11:52 AM 68.0 °F 39.0 °F 35% 30.21 in 10.0 mi South 13.8 mph 18.4 mph N/A   Clear
12:52 PM 72.0 °F 37.9 °F 29% 30.17 in 10.0 mi South 11.5 mph 18.4 mph N/A   Clear
1:52 PM 73.0 °F 35.1 °F 25% 30.14 in 10.0 mi South 10.4 mph - N/A   Clear
2:52 PM 73.0 °F 37.0 °F 27% 30.12 in 10.0 mi South 11.5 mph - N/A   Clear
3:52 PM 72.0 °F 37.9 °F 29% 30.10 in 10.0 mi South 6.9 mph - N/A   Clear
4:52 PM 68.0 °F 37.9 °F 33% 30.09 in 10.0 mi SSE 5.8 mph - N/A   Clear
5:52 PM 62.1 °F 37.9 °F 41% 30.09 in 10.0 mi SSE 5.8 mph - N/A   Clear
6:52 PM 60.1 °F 37.9 °F 44% 30.09 in 10.0 mi SSE 5.8 mph - N/A   Clear
7:52 PM 57.9 °F 37.9 °F 47% 30.09 in 10.0 mi SSE 5.8 mph - N/A   Clear
8:52 PM 55.9 °F 37.9 °F 51% 30.07 in 10.0 mi SSE 4.6 mph - N/A   Clear
9:52 PM 57.9 °F 37.9 °F 47% 30.06 in 10.0 mi South 8.1 mph - N/A   Clear
10:52 PM 57.9 °F 37.9 °F 47% 30.04 in 10.0 mi South 6.9 mph - N/A   Clear
11:52 PM 57.0 °F 37.9 °F 49% 30.03 in 10.0 mi South 5.8 mph - N/A   Clear